SENTINEL-6B

Last updated on Mon Sep 07 2026 00:02:46 GMT+0000 (Coordinated Universal Time)

1 66514U 25264A 26249.59710406 -.00000053 00000+0 32766-4 0 9992 2 66514 66.0437 326.0897 0007865 267.7928 92.2187 12.80928913 37598
UTC large
Height (km)
Speed (km/s)
/
Latitude / Longitude
Inclination (degrees)
Orbital Period (minutes)
Azimuth
Elevation
Range (km)
Doppler Factor

Next 0 passes for location: London (51.5072 / 0.1276)

No passes found over London.